C/2007 T5 (Gibbs)
Epoch 2008 May 14.0 TT = JDT 2454600.5  
T 2008 May 24.20959 TT                                  Nakano
q   4.0492965            (2000.0)            P               Q
z  +0.0213709      Peri.   34.41138     -0.65186513     -0.35096911
 +/-0.0000019      Node   109.84313     +0.42822053     -0.90195839
e   0.9134629      Incl.   45.61552     +0.62585863     +0.25157850
a  46.79 AU         P     320.1 years
From 274 observations 2007 Oct. 13-2009 Apr. 25, mean residual 0".62.
Residuals in seconds of arc 
2007/                     071130 585  1.0-  1.4+    080119 J47  0.6+  0.6+  
071013 703  1.7-  0.1-    071130 585  1.8+  0.9+    080119 J47  1.0+  0.6+  
071013 703  1.5+  0.2-    071130 585 (3.3+  1.4-)   080120 B49  0.3+  0.8+  
071013 703  0.3-  0.5-    071201 349  0.6-  0.6+    080127 213  0.2+  0.0   
071013 703  0.2-  0.1+    071201 349  0.5-  0.8+    080127 213  0.1+  0.3-  
071013 703  0.6-  0.5+    071205 561  0.7-  0.2+    080129 J47  0.6+  0.1-  
071014 G96  0.0   0.1-    071205 561  0.1+  0.6-    080129 J47  0.6+  0.2-  
071014 G96  0.5+  0.3+    071205 561  0.2-  0.2+    080129 J47  0.7+  0.3-  
071014 G96  0.1-  0.5+    071207 213  0.5-  0.5-    080201 400  0.2-  0.2-  
071014 G96  0.6-  0.2-    071207 213  0.5-  0.4-    080201 400  0.4-  0.9-  
071015 G96  0.3-  0.4-    071207 213  0.1+  1.0+    080201 400  0.2+  0.9-  
071015 G96  0.2+  0.1-    071209 J70  0.2-  1.3+    080201 J39 (2.0+  2.2+) 
071015 673  0.2+  0.3-    071209 J70  0.9+  1.6+    080202 118  0.6+  0.2-  
071015 G96  0.5-  0.7-    071209 J70  0.6+  1.2+    080202 118  0.1+  0.4-  
071015 G96  0.4+  0.0     071209 J70  1.1+  0.8+    080204 B49  0.1+  0.9-  
071015 673  1.2+  0.6-    071213 704  0.7+  0.6-    080205 118  0.1-  0.2+  
071015 G96  0.1-  0.2+    071213 704  0.2-  0.3-    080205 118  0.2-  0.3-  
071015 673  1.0-  0.2+    071213 704  0.8+  0.2-    080205 118  0.2+  0.8-  
071015 G96  0.6+  0.0     071213 704  0.8+  0.1+    080205 B37  0.0   0.4-  
071015 G96  0.2+  0.0     071213 704  0.4+  0.1+    080205 B37  0.1+  1.0-  
071015 G96  0.1-  0.4+    071215 J51  1.2-  0.6+    080205 B37  0.6-  0.2-  
071015 673  0.7-  0.4-    071215 J51  0.5-  0.4+    080205 B37  0.4+  0.3-  
071016 204  0.6+  0.6+    071215 J51  0.5-  0.1+    080207 204  0.0   0.3-  
071017 585 (1.2-  2.2-)   071215 703  0.4-  0.0     080207 204  0.3+  0.3-  
071017 585  1.2-  1.5-    071215 703  0.2+  0.5-    080207 235  0.7-  0.3-  
071017 585 (2.8-  2.0-)   071215 703  0.4+  0.3+    080207 130  1.1-  0.4-  
071017 585  0.3-  0.0     071215 703  1.5-  1.8+    080207 130  0.5-  0.3-  
071017 585  1.3-  0.8-    071215 J47  1.0+  0.1+    080207 130  0.1-  0.1-  
071018 585  0.7+  0.3+    071215 J47  0.6+  0.2+    080207 130  0.3+  1.3-  
071022 204  0.2-  0.4+    071216 J47  0.6+  0.0     080208 704 (0.5+  3.2+) 
071022 413  0.0   0.3+    071216 704  0.1-  0.2-    080208 704  0.7-  0.4+  
071022 413  0.7-  0.3-    071216 704  0.3+  0.3+    080208 704  0.3-  0.0   
071023 734  0.2+  0.5-    071216 704  0.4+  0.3+    080208 704  0.1+  0.6+  
071023 734  0.1-  0.2-    071216 704  0.2+  0.7+    080208 704  0.2-  1.6+  
071023 734  0.1-  0.7+    071216 704  1.0-  0.5+    080210 J38  0.8-  0.8+  
071025 G96  0.5-  0.5-    071220 704  1.1+  0.2+    080210 J38  0.6-  0.6+  
071025 G96  0.2+  0.5-    071220 704  0.2+  0.8+    080210 J38  0.4-  0.1+  
071025 G96  0.3+  0.1-    071220 704  1.5+  0.8-    080210 235  0.2-  0.8-  
071025 G96  0.5-  0.1-    071220 704 (2.2+  0.3-)   080211 B48  0.4-  0.3+  
071026 G96  0.2-  0.1-    071220 704  1.0+  0.3-    080211 B48  0.8+  0.3+  
071026 G96  0.0   0.1-    071221 246  0.8-  0.3+    080211 B48  0.4-  0.5+  
071026 G96  0.4-  0.1+    071221 246  0.7-  0.2-    080211 B48  0.5-  0.3+  
071026 G96  0.3+  0.5-    071221 246  0.5-  0.1-    080213 355  1.0-  0.0   
071102 850  0.8-  0.1+    071221 246  0.1+  0.1+    080213 355  0.0   0.2+  
071102 850  1.3+  0.8-    071228 213  0.4-  0.8+    080213 355  0.3+  0.0   
071103 213  0.5+  0.1+    071229 213  0.3-  0.7+    080213 355  0.1+  0.7+  
071103 213  0.5+  0.3-    071230 703  0.7-  0.3-    080216 349  0.3-  1.2+  
071103 213  0.3+  0.0     071230 703  0.5-  1.1-    080216 349  0.3-  1.0+  
071103 850  0.1+  0.3-    071230 703  0.6-  0.0     080224 204  0.1-  0.2-  
071103 850  0.3-  0.2-    071230 703  1.2-  0.8-    080224 204  0.1+  0.2+  
071103 703 (2.3-  0.3-)   071230 D88  0.1-  0.7-    080226 585  0.4+  1.6-  
071103 703  0.5-  1.0+    071230 D88  0.2-  0.6-    080226 J38  0.5+  0.1+  
071103 703 (2.3+  0.7+)   071230 355  0.8-  0.0     080226 585 (2.9-  3.7-) 
071103 349  1.2-  0.9+    071230 355  0.6+  1.1+    080226 585 (2.1-  2.5-) 
071103 349  1.3-  0.4+    071230 355  0.7+  0.0     080302 A41  0.5+  0.2-  
071104 A55  1.1+  0.2-    071230 355  0.1-  0.3+    080302 A41  1.1+  0.6+  
071104 A55  0.5+  0.0     071231 J76  0.5+  0.5+    080302 A41  0.2+  0.2-  
071104 A55  1.0+  1.3+    071231 J76  0.2+  0.1-    080307 J36  0.5+  0.2+  
071104 850  1.7+  0.2+    071231 J76  0.4-  0.3-    080307 J36  0.1+  0.3+  
071104 850  0.9+  0.4-    2008/                     080307 J36  0.5-  0.4+  
071104 701  1.8+  0.1-    080102 355  0.1+  0.9+    080308 J40 (3.0-  1.9-) 
071104 G96  0.2-  0.5-    080102 355  0.2-  1.0+    080323 H47  0.4+  0.1+  
071104 G96  0.1+  1.2-    080102 355  0.1-  0.1+    080323 H47  0.2+  0.3-  
071104 701 (3.0+  0.9-)   080102 355  0.2-  0.9+    080324 B59  0.9-  1.5-  
071104 G96  0.2-  0.7-    080104 D29  0.1+  1.2-    080329 204  0.5+  0.6+  
071104 G96  0.6+  0.1-    080104 D29  0.4-  0.3-    080329 204  0.2+  0.1+  
071104 701  0.5+  0.2-    080104 D29  0.1-  0.6+    080405 J38 (5.0-  2.0-) 
071104 701  0.9+  0.8-    080104 D29  0.6+  0.2-    080405 J38 (5.9-  2.2-) 
071105 J47  1.2-  0.9-    080105 900 (4.9-  1.3+)   080405 J38 (7.0-  2.7-) 
071105 J47  1.0-  0.6-    080105 900  0.7-  1.0-    080426 G96  0.2+  0.3-  
071106 585 (1.5-  2.2-)   080105 349  0.1-  0.2-    080426 G96  0.1-  0.2+  
071106 585  0.4-  0.6+    080105 349  0.2-  0.3-    080426 G96  0.0   0.2-  
071106 585  1.4-  0.7-    080105 349  0.2-  0.5-    080426 G96  0.3+  0.1-  
071107 734  0.2-  0.4-    080110 H45  0.3+  0.4-    080427 118  0.2-  0.2+  
071107 734  0.1+  0.5-    080110 H45  0.6+  0.3-    080427 118  0.7-  0.8-  
071107 734  0.3-  0.2-    080110 H45  0.7+  1.1-    080507 215 (2.0+  0.1+) 
071108 130  0.5+  0.6+    080110 H45  1.0+  0.8-    080507 215  0.3+  0.0   
071108 130  0.1-  0.1-    080110 H45  0.6+  0.2-    080507 215  0.4-  0.0   
071108 130  0.4+  0.9+    080110 215  0.3-  0.4-    080610 A77  1.6+  1.0+  
071112 G96  0.2-  0.1+    080110 215  0.5-  0.5-    2009/                   
071112 G96  0.9-  0.4+    080110 215  0.1-  0.7-    090125 H10  0.1-  0.4-  
071112 G96  0.6-  0.0     080111 703  0.6+  0.4+    090127 B37  0.9-  0.5+  
071112 G96  0.3-  0.6-    080111 703  0.5-  0.5-    090127 B37  0.3-  0.7+  
071112 355  0.6+  0.3-    080111 703  0.2-  0.2+    090127 B37  0.5-  0.7+  
071112 355  0.8+  0.1+    080111 703  0.2-  1.6-    090223 H10  0.4-  0.5-  
071117 703  0.9-  0.3+    080111 704  0.1-  0.4-    090223 H10  0.2+  0.6+  
071117 703  1.3+  0.7+    080111 704  0.1-  0.4+    090223 H10  0.6+  1.2-  
071117 703  0.1+  1.6+    080111 704  0.3-  1.1+    090302 703  0.4+  0.9-  
071117 703  0.2+  0.9-    080111 704  0.4-  0.8+    090302 703  0.3+  0.2-  
071118 213  0.1-  0.2-    080111 704  1.1-  1.1+    090302 703  0.6+  0.1+  
071118 213  0.4-  0.1-    080112 B40  0.2+  0.1-    090323 204  0.6+  0.0   
071118 213  0.5-  0.0     080112 B40  1.8-  0.0     090331 118 (1.4-  6.5+) 
071120 585  0.0   1.2-    080118 213  0.1+  0.1+    090331 118 (0.4-  5.0+) 
071120 585  0.3+  0.5-    080118 213  0.0   0.0     090411 H36  0.7+  0.2+  
071120 585  0.1+  1.4+    080118 213  0.0   0.2-    090411 H36  0.6+  0.5+  
071120 585  0.8+  0.2-    080119 G96  0.2-  0.7-    090413 204  0.1-  0.4-  
071120 704  0.7-  0.0     080119 G96  0.3+  0.9-    090425 B82 (2.6-  0.6+) 
071120 704  1.3+  0.3-    080119 G96  0.3+  0.3-    090425 B82 (2.5-  0.4+) 
071120 704  1.0+  0.0     080119 G96  0.2+  0.1-    090425 B82  1.9-  0.5+  
071120 704  0.8+  0.3+    080119 J47  0.1-  0.7+                            

NAKANO
         **** Don't distribute anyone except personal use only ****
                (C) Copyright 2009 OAA/ComputingSection
write mail from CFAD0::NAKANO on 2009-05-12 03:07:22(JST).

    C/2007 T5 (Gibbs)

Epoch 2008 May 14.0 TT = JDT 2454600.5  

T 2008 May 24.20663 TT                                  Nakano

q   4.0492974            (2000.0)            P               Q

z  +0.0213721      Peri.   34.41091     -0.65186258     -0.35097596

 +/-0.0000032      Node   109.84309     +0.42822835     -0.90195460

e   0.9134581      Incl.   45.61541     +0.62585594     +0.25158255

a  46.79 AU         P     320.1

From 260 observations 2007 Oct. 13-2008 June 10, mean residual 0".62.




NAKANO

         **** Don't distribute anyone except personal use only ****

                (C) Copyright 2008 OAA/ComputingSection

write mail from CFAD0::NAKANO on 2008-08-02 06:17:22(JST).



    C/2007 T5 (Gibbs)

Epoch 2008 May 14.0 TT = JDT 2454600.5  

T 2008 May 24.17753 TT                                  Nakano

q   4.0493738            (2000.0)            P               Q

z  +0.0213821      Peri.   34.40564     -0.65183114     -0.35104047

 +/-0.0000064      Node   109.84298     +0.42831271     -0.90191429

e   0.9134161      Incl.   45.61509     +0.62583096     +0.25163702

a  46.7682 AU

P 319.8 years

From 222 observations 2007 Oct. 13-2008 Feb. 13, mean residual 0".62.

NAKANO

         **** Don't distribute anyone except personal use only ****

                (C) Copyright 2008 OAA/ComputingSection

write mail from CFAD0::NAKANO on 2008-02-15 03:48:21(JST).



    C/2007 T5 (Gibbs)

T 2008 May 24.35895 TT                                  Nakano

q   4.0486579            (2000.0)            P               Q

